Погода в Бадаре

Россия / Иркутская область     54°23′52″N   100°35′50″E
темп.,
°C
ветер,
м/с
пор.,
м/с
влажн.,
%
обл.,
%
осадки,
мм/ч
давл.,
гПа
погр.,
м
24 января, пн
пн2423:00−15з1297100 0.2 103440
02:00−15з1298100 0.4 103433
05:00−15з1198100 0.3 103428
08:00−15з1198100 0.4 103433
11:00−13зсз2594100 0.2 1034217
14:00−11сз2490100 0.4 1033436
17:00−11сз2495100 0.2 1033199
20:00−13зсз1197100 0.4 103518
25 января, вт
вт2523:00−14зсз1198100 0.2 103611
02:00−15зсз1198100 0.3 103615
05:00−15зсз1198100 0.2 10369
08:00−16юз0098100 0.4 10379
11:00−14ююз119581 0.1 103682
14:00−11ю1190100 0.2 1035266
17:00−12юв1197100 0.0 103416
20:00−16юв1199100 0.0 103513
26 января, ср
ср2623:00−18юв1110073 0.0 103510
02:00−19юв13100100 0.0 103546
05:00−20юв13100100 0.0 103561
08:00−19вюв12100100 0.0 103534
11:00−16юв2595100 0.0 1035182
14:00−13юв2391100 0.1 1034302
17:00−13вюв1295100 0.0 103364
20:00−17вюв1199100 0.1 103512
27 января, чт
чт2723:00−19вюв11100100 0.0 103611
02:00−19в1199100 0.1 103523
05:00−18всв0099100 0.2 103610
08:00−18с1198100 0.4 103728
11:00−16с0195100 0.2 103893
14:00−13с1189100 0.2 1037326
17:00−15с119587 0.1 10389
20:00−20ссз1110080 0.1 10419
28 января, пт
пт2823:00−23сз11100100 0.0 10439
02:00−26сз11100100 0.1 10449
05:00−27сз11100100 0.0 10449
08:00−29сз11100100 0.1 10459
11:00−22зюз01100100 0.1 104450
14:00−16ссв009299 0.1 1042214
17:00−18всв119744 0.0 10429
20:00−25зсз00100100 0.0 10449